{"data":{"norad_id":52355,"epoch":"2026-05-24T14:24:03.963168Z","epoch_age_seconds":109841,"freshness":"FRESH","line1":"1 52355U 22045AA  26144.60004587  .00000134  00000+0  26494-4 0  9996","line2":"2 52355  53.2152 218.3474 0000987  87.0855 273.0250 15.08838372227247","mean_motion":15.08838372,"eccentricity":9.87e-5,"inclination_deg":53.2152,"raan_deg":218.3474,"arg_perigee_deg":87.0855,"mean_anomaly_deg":273.025,"bstar":2.6494e-5,"rev_number":22724,"period_min":95.437657652572,"perigee_km":539.06556982775,"apogee_km":540.43116039882,"semimajor_km":6917.8853651133,"source":"CELESTRAK","updated_at":"2026-05-25T13:38:17.117325Z"}}